#timestamp,LO_Frequency,Hit,StdDev 
1691060415.2,286047002.4,N
1691060435.0,286047000.5,N
1691060435.9,286047000.5,N
1691060455.8,286047000.3,N
1691060475.6,286047000.1,N
1691060495.4,286046999.8,N
1691060515.3,286047000.2,N
1691060535.1,286047002.7,N
1691060555.9,286046999.8,N
1691060575.7,286047002.4,N
1691060595.5,286046999.9,N
1691060615.4,286047000.2,N
1691060635.2,286046999.8,N
1691060655.0,286047002.8,N
1691060656.0,286047002.8,N
1691060675.8,286047002.3,N
1691060695.6,286047000.7,N
1691060715.5,286047000.4,N
1691060735.3,286046998.1,N
1691060755.1,286047001.1,N
1691060775.9,286047002.7,N
1691060795.7,286046999.9,N
1691060815.6,286047002.6,N
1691060835.4,286047000.8,N
1691060855.2,286046998.1,N
1691060875.1,286046998.2,N
1691060876.0,286046998.2,N
1691060895.8,286047000.7,N
1691060915.7,286046998.6,N
1691060935.5,286046998.5,N
1691060955.3,286046998.9,N
1691060975.2,286046998.3,N
1691060995.0,286046998.3,N
1691060995.9,286046998.3,N
1691061015.7,286046998.4,N
1691061035.6,286046998.2,N
1691061055.4,286046998.1,N
1691061075.3,286047000.8,N
1691061095.1,286047000.6,N
1691061096.0,286047000.6,N
1691061115.8,286046998.1,N
1691061135.7,286046998.6,N
1691061155.5,286046998.4,N
1691061175.3,286046998.6,N
1691061195.2,286046998.8,N
1691061215.0,286046999.4,N
1691061215.9,286046999.4,N
1691061235.8,286046999.5,N
1691061255.6,286046999.0,N
1691061275.4,286046996.5,N
1691061295.3,286046996.7,N
1691061315.1,286046998.3,N
1691061335.8,286046999.6,N
1691061355.7,286046998.8,N
1691061375.5,286046999.2,N
1691061395.4,286046997.4,N
1691061415.2,286046999.2,N
1691061435.0,286046996.8,Y
1691061436.0,286046996.8,P
1691061455.8,286046999.1,N
1691061475.6,286046997.2,N
1691061495.5,286046997.9,N
1691061515.3,286046996.8,Y
1691061535.1,286047000.9,P
1691061555.9,286047000.6,N
1691061575.7,286047000.2,N
1691061595.6,286047001.5,N
1691061615.4,286047002.4,N
1691061635.2,286047000.1,N
1691061655.1,286047000.6,N
1691061656.0,286047000.6,N
1691061675.8,286047000.2,N
1691061695.6,286047000.4,N
1691061715.5,286047002.8,N
1691061735.3,286047001.9,N
1691061755.2,286047002.2,N
1691061775.9,286047002.0,N
1691061795.7,286047000.1,N
1691061815.6,286047000.3,N
1691061835.4,286046999.8,N
1691061855.2,286046999.9,N
1691061875.1,286047002.8,N
1691061876.0,286047002.8,N
1691061895.8,286047001.8,N
1691061915.7,286047000.1,N
1691061935.5,286047001.5,N
1691061955.3,286047002.5,N
1691061975.2,286047000.4,N
1691061995.0,286047000.5,N
1691061995.9,286047000.5,N
1691062015.7,286047000.9,N
1691062035.6,286047000.1,N
1691062055.4,286046999.9,N
1691062075.3,286047001.0,N
1691062095.1,286047000.5,N
1691062096.0,286047000.5,N
1691062115.8,286047000.7,N
1691062135.7,286046998.4,N
1691062155.5,286047000.4,N
1691062175.3,286047000.8,N
1691062195.2,286047000.4,N
1691062215.0,286047001.0,N
1691062215.9,286047001.0,N
1691062235.8,286047001.2,N
1691062255.6,286046998.9,N
1691062275.4,286046999.0,N
1691062295.3,286047001.0,N
1691062315.1,286047000.6,N
1691062335.8,286047001.1,N
1691062355.7,286047000.8,N
1691062375.5,286046998.3,N
1691062395.4,286046999.4,N
1691062415.2,286046998.2,N
1691062435.0,286047000.8,N
1691062435.9,286047000.8,N
1691062455.8,286046998.4,N
1691062475.6,286047000.0,N
1691062495.5,286047000.0,N
1691062515.3,286047000.7,N
1691062535.1,286047001.1,N
1691062555.9,286046998.5,N
1691062575.7,286046998.4,N
1691062595.5,286046998.7,N
1691062615.4,286046998.4,N
1691062635.2,286046998.4,N
1691062655.0,286046999.1,N
1691062656.0,286046999.1,N
1691062675.8,286046998.8,N
1691062695.6,286046999.1,N
1691062715.5,286046999.1,N
1691062735.3,286046998.9,N
1691062755.1,286046998.2,N
1691062775.9,286047001.1,N
1691062795.7,286047000.8,N
1691062815.6,286047001.0,N
1691062835.4,286047001.0,N
1691062855.2,286047000.5,N
1691062875.1,286046998.6,N
1691062876.0,286046998.6,N
1691062895.8,286047000.9,N
1691062915.6,286047000.8,N
1691062935.5,286046998.5,N
1691062955.3,286046998.2,N
1691062975.2,286047000.6,N
1691062995.9,286047000.9,N
1691063015.7,286046998.3,N
1691063035.6,286046998.7,N
1691063055.4,286046999.9,N
1691063075.2,286046998.2,N
1691063095.1,286046998.8,N
1691063096.0,286046998.8,N
1691063115.8,286046999.1,N
1691063135.7,286046996.5,Y
1691063155.5,286046996.5,P
1691063175.3,286046999.5,N
1691063195.2,286046998.8,N
1691063215.0,286046999.3,N
1691063215.9,286046999.3,N
1691063235.8,286046998.9,N
1691063255.6,286046998.8,N
1691063275.3,286046998.2,N
1691063295.1,286047000.8,N
1691063296.0,286047000.8,N
1691063315.8,286047000.8,N
1691063335.7,286047000.8,N
1691063355.5,286046999.7,N
1691063375.4,286047002.8,N
1691063395.2,286047000.1,N
1691063415.0,286046998.5,N
1691063415.9,286046998.5,N
1691063435.8,286047000.6,N
1691063455.6,286047001.1,N
1691063475.5,286047000.7,N
1691063495.3,286047001.2,N
1691063515.1,286046999.8,N
1691063565.9,286047000.4,E
1691063575.8,286047000.7,N
1691063595.7,286047001.2,P
1691063615.5,286046997.4,P
1691063635.3,286046997.7,N
1691063655.2,286046997.8,N
1691063675.0,286046995.5,N
1691063675.9,286046995.5,N
1691063695.7,286046996.0,N
1691063715.6,286046996.2,N
1691063735.4,286046993.3,Y
1691063755.3,286046997.3,P
1691063775.1,286046997.2,P
1691063795.8,286046996.6,P
1691063815.7,286046996.9,Y
1691063835.5,286047000.8,P
1691063855.4,286047001.2,N
1691063875.2,286046999.2,N
1691063895.0,286046998.7,N
1691063895.9,286046998.7,N
1691063915.8,286046998.9,N
1691063935.6,286046999.0,N
1691063955.4,286046998.5,N
1691063975.3,286046998.3,N
1691063995.1,286046998.7,N
